Thu, 24 Jun 2021 22:25:45 UTC

Information for RPM xxhash-libs-0.7.2-3.fc32.aarch64.rpm

ID20488037
Namexxhash-libs
Version0.7.2
Release3.fc32
Epoch
Archaarch64
SummaryExtremely fast hash algorithm - library
DescriptionxxHash is an Extremely fast Hash algorithm, running at RAM speed limits. It successfully completes the SMHasher test suite which evaluates collision, dispersion and randomness qualities of hash functions. Code is highly portable, and hashes are identical on all platforms (little / big endian).
Build Time2020-02-07 07:23:49 GMT
Size31,033
6e31ae0da72146ac1d2129bf07d9159e
LicenseBSD
Buildrootf32-build-19378761-1356724
Provides
libxxhash.so.0()(64bit)
xxhash-libs = 0.7.2-3.fc32
xxhash-libs(aarch-64) = 0.7.2-3.fc32
Obsoletes No Obsoletes
Conflicts No Conflicts
Requires
ld-linux-aarch64.so.1()(64bit)
ld-linux-aarch64.so.1(GLIBC_2.17)(64bit)
libc.so.6()(64bit)
libc.so.6(GLIBC_2.17)(64bit)
rpmlib(CompressedFileNames) <= 3.0.4-1
rpmlib(FileDigests) <= 4.6.0-1
rpmlib(PayloadFilesHavePrefix) <= 4.0-1
rpmlib(PayloadIsZstd) <= 5.4.18-1
rtld(GNU_HASH)
Recommends No Recommends
Suggests No Suggests
Supplements No Supplements
Enhances No Enhances
Files
1 through 9 of 9
Name ascending sort Size
/usr/lib/.build-id0
/usr/lib/.build-id/ea0
/usr/lib/.build-id/ea/08ba033598985fa037fecbdd588a41a837bcd640
/usr/lib64/libxxhash.so.018
/usr/lib64/libxxhash.so.0.7.269,392
/usr/share/doc/xxhash-libs0
/usr/share/doc/xxhash-libs/README.md8,347
/usr/share/licenses/xxhash-libs0
/usr/share/licenses/xxhash-libs/LICENSE2,235
Component of
Page:
1 through 50 of 44557 >>>
Buildroot descending sort Created State
f32-build-19875744-1410603 2020-03-16 20:21:56 expired
f32-build-19875726-1410603 2020-03-16 20:21:29 expired
f32-build-19875670-1410603 2020-03-16 20:12:14 expired
f32-build-19875287-1410529 2020-03-16 19:43:01 expired
f32-build-19875233-1410529 2020-03-16 19:39:03 expired
f32-build-19875193-1410529 2020-03-16 19:33:18 expired
f32-build-19875178-1410529 2020-03-16 19:17:15 expired
f32-build-19875089-1410529 2020-03-16 19:08:35 expired
f32-build-19874947-1410486 2020-03-16 18:49:29 expired
f32-build-19874550-1410433 2020-03-16 18:14:29 expired
f32-build-19873817-1410433 2020-03-16 16:47:43 expired
f32-build-19873787-1410433 2020-03-16 16:34:48 expired
f32-build-19873692-1410433 2020-03-16 16:26:59 expired
f32-build-19873564-1410393 2020-03-16 16:08:24 expired
f32-build-19873458-1410393 2020-03-16 15:58:02 expired
f32-build-19873379-1410393 2020-03-16 15:43:43 expired
f32-build-19873378-1410393 2020-03-16 15:43:37 expired
f32-build-19873356-1410393 2020-03-16 15:39:56 expired
f32-build-19873134-1410393 2020-03-16 15:25:39 expired
f32-build-19873022-1410393 2020-03-16 15:12:45 expired
f32-build-19872998-1410393 2020-03-16 15:07:57 expired
f32-build-19872944-1410393 2020-03-16 15:04:25 expired
f32-build-19872917-1410393 2020-03-16 14:59:54 expired
f32-build-19872808-1410393 2020-03-16 14:51:14 expired
f32-build-19871180-1410280 2020-03-16 13:39:15 expired
f32-build-19871154-1410280 2020-03-16 13:37:39 expired
f32-build-19871146-1410280 2020-03-16 13:36:46 expired
f32-build-19871135-1410280 2020-03-16 13:27:24 expired
f32-build-19871119-1410253 2020-03-16 13:20:52 expired
f32-build-19870969-1410253 2020-03-16 13:09:01 expired
f32-build-19870856-1410125 2020-03-16 12:58:02 expired
f32-build-19870730-1410125 2020-03-16 12:53:40 expired
f32-build-19870075-1410125 2020-03-16 12:31:48 expired
f32-build-19869888-1410125 2020-03-16 12:26:17 expired
f32-build-19868131-1410125 2020-03-16 11:21:28 expired
f32-build-19868053-1410125 2020-03-16 11:18:21 expired
f32-build-19867774-1410125 2020-03-16 11:09:25 expired
f32-build-19867079-1410125 2020-03-16 10:45:05 expired
f32-build-19865719-1410125 2020-03-16 09:55:40 expired
f32-build-19865033-1410125 2020-03-16 09:22:45 expired
f32-build-19864672-1410125 2020-03-16 09:06:45 expired
f32-build-19864407-1410125 2020-03-16 08:54:59 expired
f32-build-19864325-1410125 2020-03-16 08:46:19 expired
f32-build-19864152-1410125 2020-03-16 08:34:11 expired
f32-build-19864094-1410125 2020-03-16 08:26:09 expired
f32-build-19863875-1410125 2020-03-16 08:06:06 expired
f32-build-19863841-1410125 2020-03-16 08:04:20 expired
f32-build-19863675-1410125 2020-03-16 07:55:19 expired
f32-build-19863674-1410125 2020-03-16 07:55:16 expired
f32-build-19863672-1410125 2020-03-16 07:55:15 expired